星链-6159 (STARLINK-6159 )

导读

STARLINK-6159是美国SpaceX公司星链(Starlink)低轨卫星互联网星座中的一员,于2023年5月4日发射。星链项目旨在为全球提供低成本宽带互联网服务,单颗卫星设计寿命约5年,本次发射的STARLINK-6159属于星座组网卫星,进一步扩充星链在轨规模。星链计划最终将部署数万颗卫星,为偏远地区及全球用户提供天基互联网接入服务,同时也引发天文学界对光污染和太空碰撞风险的讨论。

Basic Information
目录编号:
56381
目录名称:
STARLINK-6159
国际标识:
2023-061H
轨道中心:
EARTH
卫星名称:
星链-6159
卫星全名:
星链-6159 (STARLINK-6159 )
卫星状态:
在轨 (已飞行1219 天)
发射日期:
2023-05-04 UTC
国别 :
美国 (US)
星等 :
--
Orbit Information
数据来源 国际轨道数据
星历时间: 2026-09-02T19:28:49+0800
1天前
查看轨道信息
半长轴: 6861.203km
偏心率: 0.0001352
轨道倾角: 43.003°
近地点辐角 297.163°
升交点赤经 279.795°
平近点角 62.908°
近地点: 482.138km
远地点: 483.994km
周期: 94.267分钟
每日圈数: 15.275744
Detailed Information
固有亮度:
5
最大亮度:
2.5
卫星平台:
Starlink v1.5
覆盖范围:
全球
运营商:
太空探索技术公司
运营商所在国:
美国
制造商(研发单位):
太空探索技术公司
制造商所在国:
美国
使用方式:
暂无
Satellite Introduction
星链(Starlink)计划是由太空探索技术公司(SpaceX)提出的一个巨型低轨卫星互联网星座项目,计划在2019年至2024年间在太空搭建由约1.2万颗卫星组成的“星链”网络,其中1584颗将部署在地球上空550千米处的近地轨道,并从2020年开始工作。该卫星仍在工作。
2D Orbit Map
3D Orbit Map
Orbit Altitude Analysis Chart
Orbit Inclination Analysis Chart
Orbit Comprehensive Analysis Chart
View Comprehensive Chart
Conjunction Data List
Event ID Objects TCA Miss Dist (km) Collision Risk Probability Collision Risk Index (CRI) Action
CDM_260905-055205-638106-204921
2026-09-05T
05:52:41+0000
0.649 km
远距离
5.259418E-5 中风险 0.69
CDM_260904-163205-638106-204922
2026-09-04T
16:32:23+0000
0.744 km
远距离
3.44211E-5 中风险 0.66
CDM_260905-072805-638106-643321
2026-09-05T
07:28:49+0000
0.853 km
远距离
2.583044E-5 中风险 0.63
CDM_260905-052805-638106-800221
2026-09-05T
05:28:49+0000
1.022 km
极远距离
1.913866E-5 中风险 0.61
CDM_260904-180605-638106-204922
2026-09-04T
18:06:32+0000
0.933 km
远距离
1.618498E-5 中风险 0.59
CDM_260904-211605-638106-643321
2026-09-04T
21:16:49+0000
1.011 km
极远距离
1.448608E-5 中风险 0.58
CDM_260905-033105-638106-346521
2026-09-05T
03:31:52+0000
1.212 km
极远距离
6.84303E-6 低风险 0.52
CDM_260904-194205-638106-643321
2026-09-04T
19:42:40+0000
1.351 km
极远距离
5.358729E-6 低风险 0.5
CDM_260905-041805-638106-204921
2026-09-05T
04:18:32+0000
1.524 km
极远距离
3.118497E-6 低风险 0.45
CDM_260905-070205-638106-800221
2026-09-05T
07:02:58+0000
1.973 km
极远距离
2.319079E-6 低风险 0.42